SCP
0 -0 -0 -0 -0 -0 -0 -0 -0 -0 0 0 0 0 0 0 0 0 0 0 0 0 0 0 0 0 0 0 0 0 0 0 0 0 0 0 0 0 0 0 0 0 0
0 -0 0 -0 -0 -0 -0 -0 -0 -0 0 0 0 0 0 0 0 0 0 0 0 0 0 0 0 0 0 0 0 0 0 0 0 0 1 0 0 0 0 0 0 0 0
0 -0 -0 -0 -0 -0 -0 -0 0 0 0 0 0 0 0 0 0 0 0 0 0 0 0 0 0 0 0 0 0 0 0 0 1 0 0 0 0 0 0 0 0 0 0
0 0 0 -0 -0 -0 -0 -0 0 0 0 0 0 0 0 0 0 0 0 0 0 0 0 0 0 0 0 0 0 0 1 1 1 0 0 0 0 1 0 0 0 0 0
0 0 0 0 -0 -0 0 0 0 0 0 0 0 0 0 0 0 0 0 0 0 0 0 0 0 0 0 0 0 0 0 1 1 0 0 0 0 1 0 0 0 0 0
0 0 0 0 0 0 0 0 0 0 0 0 0 0 0 0 0 0 0 0 0 0 0 0 0 0 0 0 0 0 0 0 0 0 0 0 0 1 1 0 0 0 0
0 0 0 0 0 0 0 0 0 0 0 0 0 0 0 0 0 0 0 0 0 0 0 0 0 0 0 0 0 0 0 0 0 1 1 1 1 1 1 0 0 1 0
0 0 0 0 0 0 0 0 0 0 0 0 0 0 0 0 0 0 0 0 0 0 0 0 0 0 0 0 0 0 0 0 0 0 1 1 0 1 0 0 1 0 0
0 0 0 0 0 0 0 0 0 0 0 0 0 0 0 0 0 0 0 0 0 0 0 0 0 0 0 0 0 0 0 0 0 0 1 1 0 0 0 0 0 0 0
0 0 0 0 0 0 0 0 0 0 0 0 0 0 0 0 0 0 0 0 0 0 0 0 0 0 0 0 0 0 0 0 0 0 1 1 1 0 0 0 0 0 0
0 0 0 0 0 0 0 0 0 0 0 0 0 0 0 0 0 0 0 0 0 0 0 0 0 0 0 0 0 0 0 0 0 0 1 1 1 0 0 0 0 0 0
0 0 0 0 0 0 0 0 0 0 0 0 0 0 0 0 0 0 0 0 0 0 0 0 0 0 0 0 0 0 0 0 0 0 1 1 0 0 0 0 0 0 0
0 0 0 0 0 0 0 0 0 0 0 0 0 0 0 0 0 0 0 0 0 0 0 0 0 0 0 0 0 0 0 0 0 0 0 1 1 0 0 0 0 0 0
0 0 0 0 0 0 0 0 0 0 0 0 0 0 0 0 0 0 0 0 0 0 0 0 0 0 0 0 0 0 0 0 0 0 0 0 1 1 0 0 0 0 0
0 0 0 0 0 0 0 0 0 0 0 0 0 0 0 0 0 0 0 0 0 0 0 0 0 0 0 -0 0 0 0 0 0 0 0 0 0 0 0 -0 0 0 0
0 0 0 0 0 0 0 0 0 0 0 0 0 0 0 0 0 0 0 0 0 0 0 0 0 0 -0 -0 0 0 -0 -0 0 0 0 0 0 0 0 0 0 0 -0
0 0 0 0 0 0 0 0 0 0 0 0 0 0 0 0 0 0 0 0 0 0 0 0 0 -0 0 0 0 0 0 -0 0 0 0 0 0 0 0 0 0 0 0
0 0 0 0 0 0 0 0 0 0 0 0 0 0 0 0 0 0 0 0 0 0 0 0 0 0 0 0 0 0 0 -0 -0 0 0 0 0 0 0 0 -0 -0 -0
0 0 0 0 0 0 0 0 0 0 0 0 0 0 0 0 0 0 0 0 0 0 0 0 0 0 0 -0 -0 -0 -0 -0 0 0 0 0 0 0 0 -0 0 0 0
0 0 0 0 0 0 0 0 0 0 0 0 0 0 0 0 0 0 0 0 0 0 0 0 0 0 -0 0 -0 0 0 -0 0 0 0 0 0 0 0 0 0 0 0
0 0 0 0 0 0 0 0 0 0 0 0 0 0 0 0 0 0 0 0 0 0 0 0 0 0 -0 0 0 0 0 -0 -0 0 0 0 0 0 0 0 0 0 0
0 0 0 0 0 0 0 0 0 0 0 0 0 0 0 0 0 0 0 0 0 0 0 0 -0 -0 -0 -0 0 0 0 0 0 0 0 0 0 0 -0 0 0 0 0
0 0 0 0 0 0 0 0 0 0 0 0 0 0 0 0 0 0 0 0 0 0 0 0 0 0 0 -0 -0 -0 0 0 0 0 -0 -0 -0 0 0 -0 0 -0 0
0 0 0 0 0 0 0 0 0 0 0 0 0 0 0 0 0 0 0 0 0 0 0 -0 -0 0 0 0 0 -0 -0 -0 0 0 0 -0 -0 0 0 0 0 0 0
0 0 0 0 0 0 0 0 0 0 0 0 0 0 0 0 0 0 0 0 0 0 0 -0 0 0 0 0 0 0 0 -0 -0 -0 -0 -0 0 0 -0 0 0 0 0
0 0 0 0 0 0 0 0 0 0 0 0 0 0 0 0 0 0 0 0 0 0 0 0 0 0 0 0 0 0 0 -0 -0 -0 0 -0 0 0 0 0 0 0 0
Wind_Speed_500mb
20 20 30 27 25 22 18 14 14 15 11 10 10 10 12 14 17 20 23 24 25 26 26 28 28 27 25 27 26 29 32 34 32 31 30 27 25 21 21 20 20 18 17
25 22 30 27 24 20 18 22 22 14 11 14 16 16 17 20 23 26 28 30 31 33 34 35 35 32 30 33 31 31 33 35 35 33 34 31 28 25 26 22 25 20 21
28 25 29 26 22 22 23 24 14 15 17 17 17 19 21 23 26 30 33 36 38 40 42 44 44 42 36 41 38 35 34 36 38 38 41 37 34 32 31 28 32 35 28
28 25 26 28 26 25 24 19 17 17 17 18 20 22 25 29 32 35 37 39 40 41 43 46 49 50 52 54 48 43 39 38 42 44 47 42 35 40 37 36 38 34 32
27 29 30 28 27 19 15 17 16 17 19 20 23 26 30 33 35 37 38 41 42 45 46 48 50 52 53 56 59 53 44 43 43 48 49 40 41 51 44 44 43 37 33
26 27 25 22 16 13 13 16 17 18 20 23 26 29 32 35 36 38 40 43 47 49 50 52 55 56 58 58 59 61 54 50 47 50 56 48 51 49 51 50 47 41 38
25 27 24 19 15 14 16 17 18 20 22 25 28 30 32 35 37 40 44 48 51 53 55 56 57 59 62 63 62 62 61 58 53 54 62 67 64 56 55 52 50 44 44
22 23 23 20 18 17 17 17 19 22 23 26 29 31 33 36 40 44 49 52 53 52 50 50 52 53 53 56 59 64 63 61 60 57 59 69 73 69 59 55 52 46 48
24 23 21 22 20 20 19 19 21 22 24 27 29 31 35 39 43 47 49 49 44 43 46 44 43 44 46 47 47 56 66 67 66 64 64 69 66 63 63 56 53 47 51
26 26 24 24 22 22 21 20 21 22 23 24 28 31 36 40 45 46 42 42 45 41 36 35 36 35 34 37 43 48 45 61 65 70 68 70 68 70 62 63 51 56 51
27 30 28 26 22 23 21 19 20 21 22 25 29 34 39 41 40 36 43 43 37 31 31 32 33 33 31 29 28 30 29 43 42 52 66 65 69 66 63 52 61 59 60
29 30 29 25 24 23 21 20 21 21 22 27 32 36 40 39 38 40 35 30 23 24 25 33 28 29 32 25 22 34 28 24 32 44 54 66 67 66 62 59 73 60 67
27 28 29 28 26 23 23 22 21 21 24 30 35 37 39 36 32 28 25 18 18 23 20 19 22 25 29 27 27 27 25 25 29 35 55 45 58 60 64 75 70 64 59
29 29 28 30 29 25 25 21 23 22 25 31 35 39 34 31 29 24 25 18 16 17 16 21 23 28 26 28 25 16 13 17 18 25 32 54 54 45 43 50 54 45 55
30 30 30 31 30 27 25 23 21 23 28 33 36 36 31 28 24 19 22 15 14 12 15 18 23 29 17 12 10 11 12 10 15 19 24 40 43 51 43 46 63 38 46
30 32 31 31 30 29 26 24 22 23 29 34 35 31 32 26 20 17 15 12 12 9 12 19 18 14 9 14 21 15 13 6 0 1 13 21 20 30 33 41 32 37 52
30 31 33 32 30 28 26 23 23 23 28 33 31 31 29 25 19 16 10 8 5 8 9 11 11 10 17 15 20 23 14 11 3 10 13 11 12 11 23 7 18 65 38
29 32 34 34 30 28 26 21 21 23 28 31 29 28 26 22 16 9 5 6 7 8 10 11 10 15 20 18 16 14 11 3 4 10 18 19 21 15 16 23 27 30 42
26 30 34 32 29 29 24 20 18 21 25 26 27 25 22 16 9 10 12 8 12 10 14 14 17 21 23 18 14 10 8 4 4 5 3 6 15 12 10 9 27 32 40
23 25 31 29 28 26 20 15 15 21 23 22 23 21 16 9 8 14 11 5 9 10 12 14 16 20 15 31 33 29 12 8 3 11 8 10 3 3 10 16 23 25 28
19 25 28 27 25 19 14 11 13 15 21 22 20 16 9 6 9 10 7 6 7 10 8 5 14 17 18 21 18 34 29 18 10 10 9 16 14 9 8 17 23 17 59
18 21 24 25 21 19 12 8 12 16 17 19 16 11 2 8 7 8 10 9 8 7 8 16 13 9 16 16 30 23 15 21 18 14 10 12 12 13 17 22 18 48 70
21 21 21 20 16 10 5 7 11 14 15 15 14 7 3 7 6 7 9 8 8 6 8 10 9 9 14 14 27 25 10 10 19 15 15 7 14 15 20 19 23 64 58
22 23 21 17 10 3 5 9 9 9 9 11 10 4 6 9 5 4 8 8 5 5 8 8 2 3 9 11 21 24 8 7 10 12 19 18 21 28 27 28 62 63 56
22 20 18 12 4 4 7 7 9 7 11 11 7 3 7 9 4 3 9 9 7 6 9 10 5 6 4 9 19 18 11 7 15 22 14 32 34 45 40 52 57 54 47
20 18 14 10 8 8 9 10 11 10 11 7 6 4 5 10 8 4 4 7 9 6 8 12 11 7 4 1 8 10 7 8 7 18 32 26 33 38 46 42 37 36 40
Wind_Direction_500mb
167 194 186 194 190 194 194 199 197 214 243 265 268 269 270 273 277 281 284 287 289 288 285 282 280 278 278 279 271 260 256 248 246 237 226 223 219 215 205 200 193 157 193
163 186 188 193 190 198 193 201 211 224 244 266 268 269 271 275 279 281 282 283 284 284 282 278 274 273 276 268 270 265 256 249 243 234 223 223 219 216 214 205 193 190 195
154 169 185 185 181 191 198 216 209 235 252 263 271 274 278 280 281 284 285 286 285 282 279 276 274 273 268 265 262 264 259 250 239 232 224 226 227 215 216 211 189 192 195
155 161 174 171 181 195 216 229 232 241 257 268 274 281 285 287 289 289 289 289 287 285 280 277 273 269 268 266 261 254 258 251 240 230 224 224 217 225 216 204 198 196 193
160 167 188 183 192 211 220 225 237 252 266 275 280 284 288 291 292 292 293 293 290 286 283 281 278 274 269 265 263 258 250 250 242 231 222 221 212 229 220 204 200 197 195
174 189 192 197 206 220 225 235 246 258 269 276 284 289 293 293 295 295 295 293 289 288 286 282 278 276 274 270 267 264 256 248 245 237 222 217 218 222 221 208 205 202 195
184 195 198 204 213 226 231 240 252 262 272 281 287 291 293 297 299 300 297 294 294 293 291 288 284 279 274 269 266 262 257 249 243 237 230 215 217 218 222 213 207 204 198
194 200 209 210 220 231 237 245 255 270 282 289 292 296 300 303 304 303 301 302 301 299 296 294 291 285 279 273 266 259 254 247 243 241 233 225 222 221 218 214 206 208 200
187 195 215 217 228 234 239 250 265 277 285 290 296 300 304 306 306 303 304 301 303 302 305 302 302 295 286 282 276 263 255 248 240 241 233 230 225 224 222 218 202 210 206
201 203 209 221 225 233 242 254 268 279 285 293 298 302 307 310 308 308 311 310 313 311 310 316 316 315 308 293 283 268 261 252 240 234 238 233 228 227 223 228 214 207 209
207 207 214 223 227 236 248 259 272 285 293 300 306 312 317 320 315 315 306 309 307 314 322 327 328 323 321 315 324 314 294 263 248 240 234 237 233 230 229 211 225 211 206
218 220 221 227 233 239 248 268 279 291 298 309 314 316 319 319 314 317 319 322 325 330 338 339 346 345 344 321 301 295 303 290 245 233 232 232 232 232 226 220 215 214 207
219 229 227 231 235 239 249 268 280 290 302 312 314 319 322 323 320 324 322 319 332 334 340 336 339 325 312 306 300 280 281 265 256 239 226 233 235 232 233 217 213 215 210
217 223 227 232 236 238 250 264 280 292 304 311 316 321 326 325 323 328 332 352 337 338 349 347 348 5 16 357 353 342 314 269 258 249 234 220 230 228 253 230 222 218 214
222 221 231 231 238 242 249 264 279 291 304 313 318 320 327 325 324 334 335 352 341 352 357 6 5 7 354 348 356 348 355 294 245 222 214 228 238 240 260 236 235 240 189
232 228 228 234 237 243 250 264 278 291 308 316 319 319 325 330 323 330 336 344 357 11 13 26 2 358 13 29 41 56 16 355 345 240 242 231 227 223 237 256 224 225 198
247 227 227 234 237 242 249 264 279 295 310 317 319 323 326 326 325 337 345 4 40 19 21 37 359 41 33 38 49 34 45 358 352 115 114 111 147 182 212 183 248 225 204
237 225 222 229 232 237 245 262 278 301 314 320 322 323 330 330 339 4 34 83 53 56 68 49 51 51 38 23 42 49 39 43 38 119 133 114 129 150 219 232 280 202 194
225 219 218 222 224 231 241 258 277 303 316 321 326 326 331 341 8 77 105 93 79 80 70 72 65 51 40 11 11 359 3 109 126 130 169 47 131 126 146 249 219 204 207
206 205 207 211 217 224 237 253 286 310 320 325 328 333 335 13 91 101 105 90 105 106 78 59 76 79 53 33 30 31 43 57 129 174 161 113 143 211 189 192 223 223 229
162 177 190 197 206 214 227 260 301 315 324 329 335 340 353 94 104 111 93 121 106 119 98 81 88 80 42 7 344 20 51 57 74 115 139 132 135 141 163 191 220 235 150
131 157 170 183 186 197 211 267 305 318 322 330 338 342 47 128 120 116 123 124 115 106 78 107 100 62 23 16 2 20 27 51 81 80 105 141 129 98 94 136 103 155 131
110 134 153 162 173 190 240 300 319 324 332 349 343 350 185 153 117 140 159 142 156 138 130 127 112 66 22 16 9 20 354 44 58 82 79 102 110 127 114 146 117 143 133
106 129 139 146 154 188 317 327 338 334 330 318 318 321 189 182 154 184 182 162 148 168 166 199 224 17 50 25 22 11 55 76 92 75 108 101 155 139 123 141 138 137 148
99 111 122 128 116 3 339 344 336 338 330 326 330 319 188 194 199 31 198 192 192 217 211 213 233 232 110 29 27 40 73 38 122 131 100 116 115 145 144 132 137 141 151
78 91 88 74 43 15 4 354 345 335 336 332 345 350 218 209 220 296 316 222 215 229 222 209 205 214 279 216 29 47 66 25 240 169 143 132 144 129 133 139 147 156 156
Wind_Speed_850mb
20 20 30 27 25 22 18 14 14 15 11 10 10 10 12 14 17 20 23 24 25 26 26 28 28 27 25 27 26 29 32 34 32 31 30 27 25 21 21 20 20 18 17
25 22 30 27 24 20 18 22 22 14 11 14 16 16 17 20 23 26 28 30 31 33 34 35 35 32 30 33 31 31 33 35 35 33 34 31 28 25 26 22 25 20 21
28 25 29 26 22 22 23 24 14 15 17 17 17 19 21 23 26 30 33 36 38 40 42 44 44 42 36 41 38 35 34 36 38 38 41 37 34 32 31 28 32 35 28
28 25 26 28 26 25 24 19 17 17 17 18 20 22 25 29 32 35 37 39 40 41 43 46 49 50 52 54 48 43 39 38 42 44 47 42 35 40 37 36 38 34 32
27 29 30 28 27 19 15 17 16 17 19 20 23 26 30 33 35 37 38 41 42 45 46 48 50 52 53 56 59 53 44 43 43 48 49 40 41 51 44 44 43 37 33
26 27 25 22 16 13 13 16 17 18 20 23 26 29 32 35 36 38 40 43 47 49 50 52 55 56 58 58 59 61 54 50 47 50 56 48 51 49 51 50 47 41 38
25 27 24 19 15 14 16 17 18 20 22 25 28 30 32 35 37 40 44 48 51 53 55 56 57 59 62 63 62 62 61 58 53 54 62 67 64 56 55 52 50 44 44
22 23 23 20 18 17 17 17 19 22 23 26 29 31 33 36 40 44 49 52 53 52 50 50 52 53 53 56 59 64 63 61 60 57 59 69 73 69 59 55 52 46 48
24 23 21 22 20 20 19 19 21 22 24 27 29 31 35 39 43 47 49 49 44 43 46 44 43 44 46 47 47 56 66 67 66 64 64 69 66 63 63 56 53 47 51
26 26 24 24 22 22 21 20 21 22 23 24 28 31 36 40 45 46 42 42 45 41 36 35 36 35 34 37 43 48 45 61 65 70 68 70 68 70 62 63 51 56 51
27 30 28 26 22 23 21 19 20 21 22 25 29 34 39 41 40 36 43 43 37 31 31 32 33 33 31 29 28 30 29 43 42 52 66 65 69 66 63 52 61 59 60
29 30 29 25 24 23 21 20 21 21 22 27 32 36 40 39 38 40 35 30 23 24 25 33 28 29 32 25 22 34 28 24 32 44 54 66 67 66 62 59 73 60 67
27 28 29 28 26 23 23 22 21 21 24 30 35 37 39 36 32 28 25 18 18 23 20 19 22 25 29 27 27 27 25 25 29 35 55 45 58 60 64 75 70 64 59
29 29 28 30 29 25 25 21 23 22 25 31 35 39 34 31 29 24 25 18 16 17 16 21 23 28 26 28 25 16 13 17 18 25 32 54 54 45 43 50 54 45 55
30 30 30 31 30 27 25 23 21 23 28 33 36 36 31 28 24 19 22 15 14 12 15 18 23 29 17 12 10 11 12 10 15 19 24 40 43 51 43 46 63 38 46
30 32 31 31 30 29 26 24 22 23 29 34 35 31 32 26 20 17 15 12 12 9 12 19 18 14 9 14 21 15 13 6 0 1 13 21 20 30 33 41 32 37 52
30 31 33 32 30 28 26 23 23 23 28 33 31 31 29 25 19 16 10 8 5 8 9 11 11 10 17 15 20 23 14 11 3 10 13 11 12 11 23 7 18 65 38
29 32 34 34 30 28 26 21 21 23 28 31 29 28 26 22 16 9 5 6 7 8 10 11 10 15 20 18 16 14 11 3 4 10 18 19 21 15 16 23 27 30 42
26 30 34 32 29 29 24 20 18 21 25 26 27 25 22 16 9 10 12 8 12 10 14 14 17 21 23 18 14 10 8 4 4 5 3 6 15 12 10 9 27 32 40
23 25 31 29 28 26 20 15 15 21 23 22 23 21 16 9 8 14 11 5 9 10 12 14 16 20 15 31 33 29 12 8 3 11 8 10 3 3 10 16 23 25 28
19 25 28 27 25 19 14 11 13 15 21 22 20 16 9 6 9 10 7 6 7 10 8 5 14 17 18 21 18 34 29 18 10 10 9 16 14 9 8 17 23 17 59
18 21 24 25 21 19 12 8 12 16 17 19 16 11 2 8 7 8 10 9 8 7 8 16 13 9 16 16 30 23 15 21 18 14 10 12 12 13 17 22 18 48 70
21 21 21 20 16 10 5 7 11 14 15 15 14 7 3 7 6 7 9 8 8 6 8 10 9 9 14 14 27 25 10 10 19 15 15 7 14 15 20 19 23 64 58
22 23 21 17 10 3 5 9 9 9 9 11 10 4 6 9 5 4 8 8 5 5 8 8 2 3 9 11 21 24 8 7 10 12 19 18 21 28 27 28 62 63 56
22 20 18 12 4 4 7 7 9 7 11 11 7 3 7 9 4 3 9 9 7 6 9 10 5 6 4 9 19 18 11 7 15 22 14 32 34 45 40 52 57 54 47
20 18 14 10 8 8 9 10 11 10 11 7 6 4 5 10 8 4 4 7 9 6 8 12 11 7 4 1 8 10 7 8 7 18 32 26 33 38 46 42 37 36 40
Wind_Direction_850mb
167 194 186 194 190 194 194 199 197 214 243 265 268 269 270 273 277 281 284 287 289 288 285 282 280 278 278 279 271 260 256 248 246 237 226 223 219 215 205 200 193 157 193
163 186 188 193 190 198 193 201 211 224 244 266 268 269 271 275 279 281 282 283 284 284 282 278 274 273 276 268 270 265 256 249 243 234 223 223 219 216 214 205 193 190 195
154 169 185 185 181 191 198 216 209 235 252 263 271 274 278 280 281 284 285 286 285 282 279 276 274 273 268 265 262 264 259 250 239 232 224 226 227 215 216 211 189 192 195
155 161 174 171 181 195 216 229 232 241 257 268 274 281 285 287 289 289 289 289 287 285 280 277 273 269 268 266 261 254 258 251 240 230 224 224 217 225 216 204 198 196 193
160 167 188 183 192 211 220 225 237 252 266 275 280 284 288 291 292 292 293 293 290 286 283 281 278 274 269 265 263 258 250 250 242 231 222 221 212 229 220 204 200 197 195
174 189 192 197 206 220 225 235 246 258 269 276 284 289 293 293 295 295 295 293 289 288 286 282 278 276 274 270 267 264 256 248 245 237 222 217 218 222 221 208 205 202 195
184 195 198 204 213 226 231 240 252 262 272 281 287 291 293 297 299 300 297 294 294 293 291 288 284 279 274 269 266 262 257 249 243 237 230 215 217 218 222 213 207 204 198
194 200 209 210 220 231 237 245 255 270 282 289 292 296 300 303 304 303 301 302 301 299 296 294 291 285 279 273 266 259 254 247 243 241 233 225 222 221 218 214 206 208 200
187 195 215 217 228 234 239 250 265 277 285 290 296 300 304 306 306 303 304 301 303 302 305 302 302 295 286 282 276 263 255 248 240 241 233 230 225 224 222 218 202 210 206
201 203 209 221 225 233 242 254 268 279 285 293 298 302 307 310 308 308 311 310 313 311 310 316 316 315 308 293 283 268 261 252 240 234 238 233 228 227 223 228 214 207 209
207 207 214 223 227 236 248 259 272 285 293 300 306 312 317 320 315 315 306 309 307 314 322 327 328 323 321 315 324 314 294 263 248 240 234 237 233 230 229 211 225 211 206
218 220 221 227 233 239 248 268 279 291 298 309 314 316 319 319 314 317 319 322 325 330 338 339 346 345 344 321 301 295 303 290 245 233 232 232 232 232 226 220 215 214 207
219 229 227 231 235 239 249 268 280 290 302 312 314 319 322 323 320 324 322 319 332 334 340 336 339 325 312 306 300 280 281 265 256 239 226 233 235 232 233 217 213 215 210
217 223 227 232 236 238 250 264 280 292 304 311 316 321 326 325 323 328 332 352 337 338 349 347 348 5 16 357 353 342 314 269 258 249 234 220 230 228 253 230 222 218 214
222 221 231 231 238 242 249 264 279 291 304 313 318 320 327 325 324 334 335 352 341 352 357 6 5 7 354 348 356 348 355 294 245 222 214 228 238 240 260 236 235 240 189
232 228 228 234 237 243 250 264 278 291 308 316 319 319 325 330 323 330 336 344 357 11 13 26 2 358 13 29 41 56 16 355 345 240 242 231 227 223 237 256 224 225 198
247 227 227 234 237 242 249 264 279 295 310 317 319 323 326 326 325 337 345 4 40 19 21 37 359 41 33 38 49 34 45 358 352 115 114 111 147 182 212 183 248 225 204
237 225 222 229 232 237 245 262 278 301 314 320 322 323 330 330 339 4 34 83 53 56 68 49 51 51 38 23 42 49 39 43 38 119 133 114 129 150 219 232 280 202 194
225 219 218 222 224 231 241 258 277 303 316 321 326 326 331 341 8 77 105 93 79 80 70 72 65 51 40 11 11 359 3 109 126 130 169 47 131 126 146 249 219 204 207
206 205 207 211 217 224 237 253 286 310 320 325 328 333 335 13 91 101 105 90 105 106 78 59 76 79 53 33 30 31 43 57 129 174 161 113 143 211 189 192 223 223 229
162 177 190 197 206 214 227 260 301 315 324 329 335 340 353 94 104 111 93 121 106 119 98 81 88 80 42 7 344 20 51 57 74 115 139 132 135 141 163 191 220 235 150
131 157 170 183 186 197 211 267 305 318 322 330 338 342 47 128 120 116 123 124 115 106 78 107 100 62 23 16 2 20 27 51 81 80 105 141 129 98 94 136 103 155 131
110 134 153 162 173 190 240 300 319 324 332 349 343 350 185 153 117 140 159 142 156 138 130 127 112 66 22 16 9 20 354 44 58 82 79 102 110 127 114 146 117 143 133
106 129 139 146 154 188 317 327 338 334 330 318 318 321 189 182 154 184 182 162 148 168 166 199 224 17 50 25 22 11 55 76 92 75 108 101 155 139 123 141 138 137 148
99 111 122 128 116 3 339 344 336 338 330 326 330 319 188 194 199 31 198 192 192 217 211 213 233 232 110 29 27 40 73 38 122 131 100 116 115 145 144 132 137 141 151
78 91 88 74 43 15 4 354 345 335 336 332 345 350 218 209 220 296 316 222 215 229 222 209 205 214 279 216 29 47 66 25 240 169 143 132 144 129 133 139 147 156 156